User: anonymous
Location: Unspecified
(0.0000°N, 0.0000°E)
Time: 07:57:37
(UTC+02:00)
Language:

Landsat 4 - Orbit

View from above orbital plane
View from above orbital plane
View from above satellite
View from above satellite

Ground track
Ground track

The orbit data is extracted from the following two-line orbital elements,

1 13367U 82072A   14203.76079703  .00000453  00000-0  32075-4 0  6886
2 13367 098.2086 269.3768 0015033 195.6342 312.8016 15.10401856724586
Epoch (UTC): 22 July 2014 18:15:32
Eccentricity: 0.0015033
inclination: 98.2086°
perigee height: 524 km
apogee height: 545 km
right ascension of ascending node: 269.3768°
argument of perigee: 195.6342°
revolutions per day: 15.10401856
mean anomaly at epoch: 312.8016°
orbit number at epoch: 72458

The dashed part of the orbit path shows where the satellite is in the earth's shadow,  

DLR